Weather History for KEKO - August, 2013

Change the Weather History Date:

Wednesday, August 21, 2013

  Actual Average Record
Temperature  
Mean Temperature 74 °F 67 °F  
Max Temperature 88 °F 88 °F 102 °F (1917)
Min Temperature 59 °F 47 °F 32 °F (1916)
Degree Days  
Heating Degree Days 0 1  
Month to date heating degree days 0 13  
Since 1 June heating degree days 63 163  
Since 1 July heating degree days 0 32  
Cooling Degree Days 9 4  
Month to date cooling degree days 148 105  
Year to date cooling degree days 648 336  
Since 1 June cooling degree days 644 332  
Growing Degree Days 24 (Base 50)    
Moisture  
Dew Point 50 °F    
Average Humidity 56    
Maximum Humidity 90    
Minimum Humidity 21    
Precipitation  
Precipitation T in 0.01 in 0.69 in (2003)
Month to date precipitation 0.14 0.25  
Year to date precipitation 3.45 6.16  
Snow  
Snow 0.00 in 0.00 in 0.00 in (1888)
Month to date snowfall 0.0 0.0  
Since 1 June snowfall 0.0 0.0  
Since 1 July snowfall 0.0 0.0  
Snow Depth 0.00 in    
Sea Level Pressure  
Sea Level Pressure 30.01 in    
Wind  
Wind Speed 5 mph (SE)    
Max Wind Speed 26 mph    
Max Gust Speed 37 mph    
Visibility 10 miles    
Events Rain    
T = Trace of Precipitation, MM = Missing Value Source: NWS Daily Summary

Daily Weather History Graph

Daily Weather History Graph

Search for Another Location

Airport or City:

Trip Planner

Search our weather history database for the weather conditions in past years. The results will help you decide how hot, cold, wet, or windy it might be!

Date:

Astronomy

Aug. 21, 2013 Rise Set
Actual Time 5:59 AM PDT 7:32 PM PDT
Civil Twilight 5:30 AM PDT 8:00 PM PDT
Nautical Twilight 4:55 AM PDT 8:35 PM PDT
Astronomical Twilight 4:18 AM PDT 9:12 PM PDT
Moon 7:42 PM PDT (8/21) 6:45 AM PDT (8/21)
Length of Visible Light 14h 30m
Length of Day
13h 32m
Full, 99% of the Moon is Illuminated
Aug 21
Full
Aug 28
Last Quarter
Sep 5
New
Sep 12
First Quarter
Sep 19
Full

Hourly Weather History & Observations

Time (PDT) Temp. Dew Point Humidity Pressure Visibility Wind Dir Wind Speed Gust Speed Precip Events Conditions
12:56 AM 63.0 °F 57.9 °F 84% 29.99 in 10.0 mi NE 3.5 mph - N/A   Scattered Clouds
1:56 AM 62.1 °F 57.0 °F 84% 30.01 in 10.0 mi ESE 4.6 mph - N/A   Mostly Cloudy
2:56 AM 62.1 °F 55.9 °F 80% 30.00 in 10.0 mi Calm Calm - N/A   Mostly Cloudy
3:56 AM 61.0 °F 57.0 °F 87% 30.02 in 10.0 mi Calm Calm - N/A   Mostly Cloudy
4:56 AM 60.1 °F 57.9 °F 93% 30.05 in 10.0 mi WNW 3.5 mph - N/A   Overcast
5:56 AM 61.0 °F 57.9 °F 90% 30.05 in 10.0 mi Calm Calm - N/A   Scattered Clouds
6:56 AM 61.0 °F 55.9 °F 83% 30.07 in 10.0 mi ENE 3.5 mph - N/A   Scattered Clouds
7:56 AM 64.0 °F 57.0 °F 78% 30.08 in 10.0 mi Calm Calm - N/A   Clear
8:56 AM 68.0 °F 55.0 °F 63% 30.06 in 10.0 mi Calm Calm - N/A   Clear
9:56 AM 72.0 °F 55.0 °F 55% 30.06 in 10.0 mi Variable 3.5 mph - N/A   Clear
10:56 AM 77.0 °F 53.1 °F 43% 30.04 in 10.0 mi Calm Calm - N/A   Clear
11:56 AM 81.0 °F 46.0 °F 29% 30.02 in 10.0 mi Calm Calm - N/A   Clear
12:56 PM 82.9 °F 46.0 °F 27% 30.00 in 10.0 mi Calm Calm - N/A   Clear
1:56 PM 86.0 °F 46.0 °F 25% 29.97 in 10.0 mi SSW 9.2 mph - N/A   Clear
2:56 PM 88.0 °F 43.0 °F 21% 29.94 in 10.0 mi NE 6.9 mph - N/A   Clear
3:56 PM 86.0 °F 43.0 °F 22% 29.92 in 10.0 mi West 11.5 mph - N/A   Clear
4:56 PM 81.0 °F 41.0 °F 24% 29.96 in 10.0 mi South 18.4 mph 36.8 mph N/A   Clear
5:56 PM 75.9 °F 42.1 °F 30% 29.95 in 10.0 mi SSE 16.1 mph 26.5 mph N/A   Clear
6:56 PM 75.9 °F 43.0 °F 31% 29.96 in 10.0 mi ESE 10.4 mph 18.4 mph N/A   Clear
7:56 PM 73.9 °F 43.0 °F 33% 29.96 in 10.0 mi NNE 3.5 mph - N/A   Clear
8:56 PM 66.9 °F 46.0 °F 47% 29.99 in 10.0 mi Calm Calm - N/A   Clear
9:56 PM 64.0 °F 46.9 °F 54% 30.04 in 10.0 mi West 10.4 mph - N/A   Clear
10:56 PM 69.1 °F 48.9 °F 49% 30.04 in 10.0 mi South 9.2 mph - N/A   Overcast
11:56 PM 69.1 °F 48.9 °F 49% 30.04 in 10.0 mi Calm Calm - 0.00 in Rain Light Rain